Location: Spruce Knob
(38.6995°N, 79.5330°W)
Time: 21:54:27
(UTC-05:00)

S-56A Canister/Altair - All Passes

Search period start: 27 January 2022 00:00
Search period end: 06 February 2022 00:00
Orbit: 634 x 2499 km, 38.9° (Epoch: 26 January)

Date Brightness Start Highest point End Pass type
(mag) Time Alt. Az. Time Alt. Az. Time Alt. Az.
27 Jan - 06:19:36 10° SSW 06:23:15 25° SSE 06:27:06 10° E visible
27 Jan - 08:21:52 10° WSW 08:26:25 79° SSE 08:32:15 10° E daylight
27 Jan - 10:25:04 10° W 10:30:21 87° S 10:38:05 10° E daylight
27 Jan - 12:28:20 10° W 12:34:34 48° SSW 12:43:54 10° SE daylight
27 Jan - 14:33:28 10° WSW 14:39:09 19° SW 14:46:16 10° S daylight
28 Jan - 05:47:26 10° SSW 05:50:50 21° SSE 05:54:15 10° E visible
28 Jan - 07:49:30 10° WSW 07:53:55 73° SSE 07:59:18 10° E daylight
28 Jan - 09:52:44 10° W 09:57:43 89° SSW 10:04:49 10° E daylight
28 Jan - 11:55:57 10° W 12:01:49 51° SSW 12:10:35 10° SE daylight
28 Jan - 14:00:40 10° WSW 14:06:15 21° SSW 14:13:27 10° S daylight
29 Jan - 05:15:18 10° S 05:18:24 18° SSE 05:21:24 10° ESE visible
29 Jan - 07:17:06 10° WSW 07:21:28 66° SSE 07:26:28 10° E daylight
29 Jan - 09:20:24 10° W 09:25:09 89° N 09:31:38 10° E daylight
29 Jan - 11:23:35 10° W 11:29:07 55° SSW 11:37:18 10° SE daylight
29 Jan - 13:27:57 10° W 13:33:25 22° SSW 13:40:33 10° SSE daylight
30 Jan - 04:43:13 10° S 04:45:57 15° SSE 04:48:31 10° ESE visible
30 Jan - 06:44:39 10° WSW 06:49:02 58° SSE 06:53:42 10° E visible
30 Jan - 08:48:02 10° W 08:52:36 87° N 08:58:33 10° E daylight
30 Jan - 10:51:15 10° W 10:56:28 58° SSW 11:04:04 10° ESE daylight
30 Jan - 12:55:21 10° W 13:00:37 24° SSW 13:07:37 10° SSE daylight
31 Jan - 04:11:12 10° S 04:13:27 13° SSE 04:15:34 10° ESE visible
31 Jan - 06:12:10 10° SW 06:16:36 51° SSE 06:21:02 10° E visible
31 Jan - 08:15:38 10° W 08:20:06 87° N 08:25:35 10° E daylight
31 Jan - 10:18:55 10° W 10:23:53 62° SSW 10:30:54 10° ESE daylight
31 Jan - 12:22:48 10° W 12:27:52 25° SSW 12:34:41 10° SSE daylight
01 Feb - 03:39:22 10° SSE 03:40:56 11° SSE 03:42:25 10° SE visible
01 Feb - 05:39:39 10° SW 05:44:10 45° SSE 05:48:26 10° E visible
01 Feb - 07:43:11 10° W 07:47:36 88° N 07:52:43 10° E daylight
01 Feb - 09:46:34 10° W 09:51:19 67° SSW 09:57:48 10° ESE daylight
01 Feb - 11:50:17 10° W 11:55:10 27° SSW 12:01:43 10° SSE daylight
02 Feb - 05:07:05 10° SW 05:11:44 40° SSE 05:15:53 10° E visible
02 Feb - 07:10:41 10° W 07:15:08 90° NNE 07:19:57 10° E daylight
02 Feb - 09:14:12 10° W 09:18:47 72° SSW 09:24:46 10° ESE daylight
02 Feb - 11:17:51 10° W 11:22:31 29° SSW 11:28:48 10° SSE daylight
03 Feb - 04:34:27 10° SW 04:39:17 35° SSE 04:43:22 10° E visible
03 Feb - 06:38:07 10° W 06:42:41 87° S 06:47:17 10° E visible
03 Feb - 08:41:49 10° W 08:46:17 77° SSW 08:51:50 10° ESE daylight
03 Feb - 10:45:24 10° W 10:49:55 31° SSW 10:55:54 10° SSE daylight
04 Feb - 04:01:46 10° SW 04:06:48 32° SSE 04:10:53 10° E visible
04 Feb - 06:05:28 10° WSW 06:10:13 83° S 06:14:42 10° E visible
04 Feb - 08:09:23 10° W 08:13:48 82° S 08:18:58 10° ESE daylight
04 Feb - 10:12:58 10° W 10:17:21 33° SSW 10:23:02 10° SE daylight
05 Feb - 03:29:03 10° SSW 03:34:17 29° SSE 03:38:26 10° E visible
05 Feb - 05:32:45 10° WSW 05:37:46 78° SSE 05:42:11 10° E visible
05 Feb - 07:36:54 10° W 07:41:21 86° S 07:46:12 10° E daylight
05 Feb - 09:40:33 10° W 09:44:49 36° SSW 09:50:14 10° SE daylight
05 Feb - 11:48:29 10° SSW 11:48:31 10° SSW 11:48:33 10° SSW daylight
